Time,TemperatureF,DewpointF,PressureIn,WindDirection,WindDirectionDegrees,WindSpeedMPH,WindSpeedGustMPH,Humidity,HourlyPrecipIn,Conditions,Clouds,dailyrainin,SoftwareType,DateUTC
2013-05-20 00:05:00,77.0,43.5,29.59,SSE,158,5.4,9.2,31,0.00,,,0.00,WSDL version 420,2013-05-20 05:05:00,
2013-05-20 00:11:00,76.9,44.0,29.59,South,169,6.6,9.4,31,0.00,,,0.00,WSDL version 420,2013-05-20 05:11:00,
2013-05-20 00:17:00,76.8,43.9,29.59,South,186,7.1,9.4,31,0.00,,,0.00,WSDL version 420,2013-05-20 05:17:00,
2013-05-20 00:23:00,76.8,43.9,29.59,SSE,158,5.9,9.4,31,0.00,,,0.00,WSDL version 420,2013-05-20 05:23:00,
2013-05-20 00:29:00,76.6,43.8,29.59,SSE,158,4.8,8.1,31,0.00,,,0.00,WSDL version 420,2013-05-20 05:29:00,
2013-05-20 00:35:00,76.5,44.3,29.59,SSE,158,5.8,8.7,32,0.00,,,0.00,WSDL version 420,2013-05-20 05:35:00,
2013-05-20 00:41:00,76.5,44.4,29.59,SSE,165,4.8,8.7,32,0.00,,,0.00,WSDL version 420,2013-05-20 05:41:00,
2013-05-20 00:47:00,76.5,44.4,29.59,South,180,6.5,7.4,32,0.00,,,0.00,WSDL version 420,2013-05-20 05:47:00,
2013-05-20 00:53:00,76.4,44.4,29.59,South,173,5.4,6.5,32,0.00,,,0.00,WSDL version 420,2013-05-20 05:53:00,
2013-05-20 00:59:00,76.3,44.3,29.59,SE,146,6.0,7.6,32,0.00,,,0.00,WSDL version 420,2013-05-20 05:59:00,
2013-05-20 01:05:00,76.1,44.4,29.59,SSE,158,5.6,9.2,32,0.00,,,0.00,WSDL version 420,2013-05-20 06:05:00,
2013-05-20 01:11:00,76.1,44.8,29.59,South,180,4.7,9.8,33,0.00,,,0.00,WSDL version 420,2013-05-20 06:11:00,
2013-05-20 01:17:00,76.0,44.8,29.56,SSE,158,5.6,8.7,33,0.00,,,0.00,WSDL version 420,2013-05-20 06:17:00,
2013-05-20 01:23:00,75.9,44.8,29.56,North,0,0.0,8.5,33,0.00,,,0.00,WSDL version 420,2013-05-20 06:23:00,
2013-05-20 01:29:00,75.9,44.8,29.56,North,0,0.0,8.7,33,0.00,,,0.00,WSDL version 420,2013-05-20 06:29:00,
2013-05-20 01:35:00,75.9,44.8,29.56,South,173,6.7,15.2,33,0.00,,,0.00,WSDL version 420,2013-05-20 06:35:00,
2013-05-20 01:41:00,75.9,44.8,29.56,SSE,158,6.6,10.3,33,0.00,,,0.00,WSDL version 420,2013-05-20 06:41:00,
2013-05-20 01:47:00,75.9,44.8,29.56,North,0,0.0,9.4,33,0.00,,,0.00,WSDL version 420,2013-05-20 06:47:00,
2013-05-20 01:53:00,75.9,44.9,29.56,SSE,158,6.4,9.4,34,0.00,,,0.00,WSDL version 420,2013-05-20 06:53:00,
2013-05-20 01:59:00,75.7,45.4,29.56,South,169,7.2,8.7,34,0.00,,,0.00,WSDL version 420,2013-05-20 06:59:00,
2013-05-20 02:05:00,75.7,45.4,29.56,SSE,158,6.9,9.6,34,0.00,,,0.00,WSDL version 420,2013-05-20 07:05:00,
2013-05-20 02:11:00,75.7,45.4,29.56,SSE,158,6.3,10.1,34,0.00,,,0.00,WSDL version 420,2013-05-20 07:11:00,
2013-05-20 02:17:00,75.7,45.4,29.56,South,174,5.5,10.1,34,0.00,,,0.00,WSDL version 420,2013-05-20 07:17:00,
2013-05-20 02:23:00,75.6,45.3,29.56,South,169,5.0,8.9,34,0.00,,,0.00,WSDL version 420,2013-05-20 07:23:00,
2013-05-20 02:29:00,75.6,45.6,29.56,North,0,0.0,10.3,35,0.00,,,0.00,WSDL version 420,2013-05-20 07:29:00,
2013-05-20 02:35:00,75.7,46.1,29.56,South,169,4.9,10.3,35,0.00,,,0.00,WSDL version 420,2013-05-20 07:35:00,
2013-05-20 02:41:00,75.6,46.0,29.56,South,180,7.0,9.6,35,0.00,,,0.00,WSDL version 420,2013-05-20 07:41:00,
2013-05-20 02:47:00,75.6,46.1,29.56,SSW,203,5.4,10.5,35,0.00,,,0.00,WSDL version 420,2013-05-20 07:47:00,
2013-05-20 02:53:00,75.6,46.0,29.56,SSW,203,2.9,8.1,35,0.00,,,0.00,WSDL version 420,2013-05-20 07:53:00,
2013-05-20 02:59:00,75.6,46.0,29.56,South,180,5.8,8.1,35,0.00,,,0.00,WSDL version 420,2013-05-20 07:59:00,
2013-05-20 03:05:00,75.6,46.0,29.56,SSE,158,5.4,12.1,35,0.00,,,0.00,WSDL version 420,2013-05-20 08:05:00,
2013-05-20 03:11:00,75.6,46.0,29.56,South,169,3.4,12.1,35,0.00,,,0.00,WSDL version 420,2013-05-20 08:11:00,
2013-05-20 03:17:00,75.4,45.9,29.56,SSE,158,4.3,8.1,35,0.00,,,0.00,WSDL version 420,2013-05-20 08:17:00,
2013-05-20 03:23:00,75.4,45.9,29.56,North,-999,-999.0,-999.0,35,0.00,,,0.00,WSDL version 420,2013-05-20 08:23:00,
2013-05-20 03:29:00,75.6,46.0,29.56,SSE,158,6.0,10.1,35,0.00,,,0.00,WSDL version 420,2013-05-20 08:29:00,
2013-05-20 03:35:00,75.6,46.0,29.56,South,180,6.3,8.1,35,0.00,,,0.00,WSDL version 420,2013-05-20 08:35:00,
2013-05-20 03:41:00,75.6,46.0,29.56,South,169,6.7,11.0,35,0.00,,,0.00,WSDL version 420,2013-05-20 08:41:00,
2013-05-20 03:47:00,75.6,46.0,29.56,SSE,165,3.9,11.0,35,0.00,,,0.00,WSDL version 420,2013-05-20 08:47:00,
2013-05-20 03:53:00,75.6,46.0,29.56,North,0,0.0,6.3,35,0.00,,,0.00,WSDL version 420,2013-05-20 08:53:00,
2013-05-20 03:59:00,75.4,46.5,29.56,North,0,0.0,5.8,36,0.00,,,0.00,WSDL version 420,2013-05-20 08:59:00,
2013-05-20 04:05:00,75.4,46.5,29.56,West,270,3.6,7.4,36,0.00,,,0.00,WSDL version 420,2013-05-20 09:05:00,
2013-05-20 04:11:00,75.2,46.5,29.56,SSE,158,4.3,7.8,36,0.00,,,0.00,WSDL version 420,2013-05-20 09:11:00,
2013-05-20 04:17:00,75.2,46.3,29.56,South,173,3.4,7.8,36,0.00,,,0.00,WSDL version 420,2013-05-20 09:17:00,
2013-05-20 04:23:00,75.2,46.4,29.56,SW,225,7.8,11.4,36,0.00,,,0.00,WSDL version 420,2013-05-20 09:23:00,
2013-05-20 04:29:00,75.1,46.6,29.56,SSE,158,2.5,11.4,37,0.00,,,0.00,WSDL version 420,2013-05-20 09:29:00,
2013-05-20 04:35:00,75.0,47.0,29.56,SW,225,4.7,9.6,37,0.00,,,0.00,WSDL version 420,2013-05-20 09:35:00,
2013-05-20 04:41:00,75.0,47.2,29.56,South,174,3.1,5.6,38,0.00,,,0.00,WSDL version 420,2013-05-20 09:41:00,
2013-05-20 04:47:00,75.0,47.7,29.56,SSE,158,3.4,8.1,38,0.00,,,0.00,WSDL version 420,2013-05-20 09:47:00,
2013-05-20 04:53:00,75.0,47.7,29.56,SSW,203,4.3,8.1,38,0.00,,,0.00,WSDL version 420,2013-05-20 09:53:00,
2013-05-20 04:59:00,75.0,47.7,29.56,SSE,158,4.5,4.5,38,0.00,,,0.00,WSDL version 420,2013-05-20 09:59:00,
2013-05-20 05:05:00,75.0,47.7,29.56,South,169,5.0,7.2,38,0.00,,,0.00,WSDL version 420,2013-05-20 10:05:00,
2013-05-20 05:11:00,75.0,47.7,29.56,North,-999,-999.0,-999.0,38,0.00,,,0.00,WSDL version 420,2013-05-20 10:11:00,
2013-05-20 05:17:00,75.2,47.9,29.56,South,180,5.4,6.5,38,0.00,,,0.00,WSDL version 420,2013-05-20 10:17:00,
2013-05-20 05:23:00,75.1,47.9,29.56,North,-999,-999.0,-999.0,38,0.00,,,0.00,WSDL version 420,2013-05-20 10:23:00,
2013-05-20 05:29:00,75.0,48.4,29.56,WSW,253,4.3,6.9,39,0.00,,,0.00,WSDL version 420,2013-05-20 10:29:00,
2013-05-20 05:35:00,75.0,48.4,29.56,SSW,195,4.8,6.9,39,0.00,,,0.00,WSDL version 420,2013-05-20 10:35:00,
2013-05-20 05:41:00,75.0,48.4,29.56,SSE,158,3.1,6.3,39,0.00,,,0.00,WSDL version 420,2013-05-20 10:41:00,
2013-05-20 05:47:00,75.0,48.4,29.59,SSE,165,4.3,9.8,39,0.00,,,0.00,WSDL version 420,2013-05-20 10:47:00,
2013-05-20 05:53:00,75.0,48.7,29.59,SSW,203,5.8,13.2,39,0.00,,,0.00,WSDL version 420,2013-05-20 10:53:00,
2013-05-20 05:59:00,75.0,49.1,29.59,SSE,158,4.0,13.4,40,0.00,,,0.00,WSDL version 420,2013-05-20 10:59:00,
2013-05-20 06:05:00,75.0,49.1,29.59,SSE,158,5.8,13.4,40,0.00,,,0.00,WSDL version 420,2013-05-20 11:05:00,
2013-05-20 06:11:00,74.9,49.5,29.59,South,169,5.6,13.0,41,0.00,,,0.00,WSDL version 420,2013-05-20 11:11:00,
2013-05-20 06:17:00,74.9,49.7,29.59,North,0,0.0,11.0,41,0.00,,,0.00,WSDL version 420,2013-05-20 11:17:00,
2013-05-20 06:23:00,74.8,49.6,29.59,SSE,158,6.6,12.8,41,0.00,,,0.00,WSDL version 420,2013-05-20 11:23:00,
2013-05-20 06:29:00,74.8,49.6,29.59,SSE,158,2.2,12.8,41,0.00,,,0.00,WSDL version 420,2013-05-20 11:29:00,
2013-05-20 06:35:00,74.8,49.6,29.59,SSE,158,5.5,6.3,41,0.00,,,0.00,WSDL version 420,2013-05-20 11:35:00,
2013-05-20 06:41:00,74.8,49.6,29.59,North,0,0.0,4.9,41,0.00,,,0.00,WSDL version 420,2013-05-20 11:41:00,
2013-05-20 06:47:00,74.8,49.6,29.59,SSE,158,6.7,9.4,41,0.00,,,0.00,WSDL version 420,2013-05-20 11:47:00,
2013-05-20 06:53:00,74.8,49.6,29.59,South,180,3.8,9.4,41,0.00,,,0.00,WSDL version 420,2013-05-20 11:53:00,
2013-05-20 06:59:00,74.8,49.7,29.59,North,-999,-999.0,-999.0,41,0.00,,,0.00,WSDL version 420,2013-05-20 11:59:00,
2013-05-20 07:05:00,74.8,50.0,29.59,SSW,208,3.6,5.6,42,0.00,,,0.00,WSDL version 420,2013-05-20 12:05:00,
2013-05-20 07:11:00,75.0,50.4,29.59,South,180,6.5,6.5,42,0.00,,,0.00,WSDL version 420,2013-05-20 12:11:00,
2013-05-20 07:17:00,75.0,50.2,29.59,South,180,7.8,8.5,41,0.00,,,0.00,WSDL version 420,2013-05-20 12:17:00,
2013-05-20 07:23:00,75.2,49.9,29.59,SSE,149,5.6,10.5,41,0.00,,,0.00,WSDL version 420,2013-05-20 12:23:00,
2013-05-20 07:29:00,75.2,49.9,29.59,SW,225,4.9,10.5,41,0.00,,,0.00,WSDL version 420,2013-05-20 12:29:00,
2013-05-20 07:35:00,75.4,50.1,29.62,SE,135,3.4,6.3,41,0.00,,,0.00,WSDL version 420,2013-05-20 12:35:00,
2013-05-20 07:41:00,75.5,50.2,29.62,North,-999,-999.0,-999.0,41,0.00,,,0.00,WSDL version 420,2013-05-20 12:41:00,
2013-05-20 07:47:00,75.7,50.4,29.62,North,-999,-999.0,-999.0,41,0.00,,,0.00,WSDL version 420,2013-05-20 12:47:00,
2013-05-20 07:53:00,75.9,50.2,29.62,South,180,5.8,10.3,40,0.00,,,0.00,WSDL version 420,2013-05-20 12:53:00,
2013-05-20 07:59:00,75.9,49.9,29.62,North,-999,-999.0,-999.0,40,0.00,,,0.00,WSDL version 420,2013-05-20 12:59:00,
2013-05-20 08:05:00,76.1,49.4,29.62,SSE,158,3.0,12.8,39,0.00,,,0.00,WSDL version 420,2013-05-20 13:05:00,
2013-05-20 08:11:00,76.4,49.6,29.62,SSE,158,6.9,7.6,38,0.00,,,0.00,WSDL version 420,2013-05-20 13:11:00,
2013-05-20 08:17:00,76.6,49.1,29.62,SSE,158,3.4,8.5,38,0.00,,,0.00,WSDL version 420,2013-05-20 13:17:00,
2013-05-20 08:23:00,77.1,48.5,29.62,SW,225,3.6,6.3,36,0.00,,,0.00,WSDL version 420,2013-05-20 13:23:00,
2013-05-20 08:29:00,77.4,48.4,29.62,North,0,0.0,7.4,36,0.00,,,0.00,WSDL version 420,2013-05-20 13:29:00,
2013-05-20 08:35:00,77.6,48.0,29.62,North,0,0.0,7.6,36,0.00,,,0.00,WSDL version 420,2013-05-20 13:35:00,
2013-05-20 08:41:00,77.9,47.4,29.62,North,-999,-999.0,-999.0,34,0.00,,,0.00,WSDL version 420,2013-05-20 13:41:00,
2013-05-20 08:47:00,78.3,47.6,29.62,SW,225,4.7,5.4,34,0.00,,,0.00,WSDL version 420,2013-05-20 13:47:00,
2013-05-20 08:53:00,78.8,47.9,29.62,SSE,158,4.0,4.3,33,0.00,,,0.00,WSDL version 420,2013-05-20 13:53:00,
2013-05-20 08:59:00,79.1,47.2,29.62,South,180,2.0,8.7,33,0.00,,,0.00,WSDL version 420,2013-05-20 13:59:00,
2013-05-20 09:05:00,79.4,47.0,29.62,North,0,0.0,8.7,32,0.00,,,0.00,WSDL version 420,2013-05-20 14:05:00,
2013-05-20 09:11:00,79.8,47.3,29.62,North,0,0.0,5.6,32,0.00,,,0.00,WSDL version 420,2013-05-20 14:11:00,
2013-05-20 09:17:00,80.1,47.5,29.62,SE,135,5.6,5.6,31,0.00,,,0.00,WSDL version 420,2013-05-20 14:17:00,
2013-05-20 09:23:00,80.4,46.8,29.62,SSW,203,3.6,8.7,31,0.00,,,0.00,WSDL version 420,2013-05-20 14:23:00,
2013-05-20 09:29:00,80.6,46.3,29.62,SSE,158,2.5,8.7,30,0.00,,,0.00,WSDL version 420,2013-05-20 14:29:00,
2013-05-20 09:35:00,80.8,46.5,29.62,North,-999,-999.0,-999.0,30,0.00,,,0.00,WSDL version 420,2013-05-20 14:35:00,
2013-05-20 09:41:00,80.9,46.5,29.62,North,-999,-999.0,-999.0,29,0.00,,,0.00,WSDL version 420,2013-05-20 14:41:00,
2013-05-20 09:47:00,81.2,46.9,29.62,North,-999,-999.0,-999.0,30,0.00,,,0.00,WSDL version 420,2013-05-20 14:47:00,
2013-05-20 09:53:00,81.7,46.7,29.62,North,-999,-999.0,-999.0,29,0.00,,,0.00,WSDL version 420,2013-05-20 14:53:00,
2013-05-20 09:59:00,82.2,47.0,29.62,SSE,158,4.3,7.8,29,0.00,,,0.00,WSDL version 420,2013-05-20 14:59:00,
2013-05-20 10:05:00,82.3,46.4,29.62,South,188,3.9,6.5,29,0.00,,,0.00,WSDL version 420,2013-05-20 15:05:00,
2013-05-20 10:11:00,83.0,47.2,29.62,SSE,158,3.4,7.4,28,0.00,,,0.00,WSDL version 420,2013-05-20 15:11:00,
2013-05-20 10:17:00,83.3,45.7,29.62,SW,225,4.5,7.4,25,0.00,,,0.00,WSDL version 420,2013-05-20 15:17:00,
2013-05-20 10:23:00,82.8,43.0,29.62,North,-999,-999.0,-999.0,25,0.00,,,0.00,WSDL version 420,2013-05-20 15:23:00,
2013-05-20 10:29:00,82.9,44.4,29.62,North,-999,-999.0,-999.0,25,0.00,,,0.00,WSDL version 420,2013-05-20 15:29:00,
2013-05-20 10:35:00,83.1,43.9,29.62,SE,135,3.8,5.8,25,0.00,,,0.00,WSDL version 420,2013-05-20 15:35:00,
2013-05-20 10:41:00,82.8,43.4,29.62,SW,225,3.4,5.8,25,0.00,,,0.00,WSDL version 420,2013-05-20 15:41:00,
2013-05-20 10:47:00,82.6,42.7,29.62,North,-999,-999.0,-999.0,25,0.00,,,0.00,WSDL version 420,2013-05-20 15:47:00,
2013-05-20 10:53:00,82.6,42.8,29.62,SSE,158,4.7,10.5,25,0.00,,,0.00,WSDL version 420,2013-05-20 15:53:00,
2013-05-20 10:59:00,82.8,43.4,29.62,North,-999,-999.0,-999.0,25,0.00,,,0.00,WSDL version 420,2013-05-20 15:59:00,
2013-05-20 11:05:00,83.2,43.8,29.62,North,-999,-999.0,-999.0,25,0.00,,,0.00,WSDL version 420,2013-05-20 16:05:00,
2013-05-20 11:11:00,83.4,43.2,29.62,ESE,113,4.5,7.4,24,0.00,,,0.00,WSDL version 420,2013-05-20 16:11:00,
2013-05-20 11:17:00,83.1,43.0,29.62,SW,214,4.5,4.9,24,0.00,,,0.00,WSDL version 420,2013-05-20 16:17:00,
2013-05-20 11:23:00,82.5,42.1,29.62,SW,225,3.2,4.9,24,0.00,,,0.00,WSDL version 420,2013-05-20 16:23:00,
2013-05-20 11:29:00,82.1,41.9,29.62,SSW,203,3.0,3.8,24,0.00,,,0.00,WSDL version 420,2013-05-20 16:29:00,
2013-05-20 11:35:00,82.0,42.8,29.65,SW,225,2.9,4.0,25,0.00,,,0.00,WSDL version 420,2013-05-20 16:35:00,
2013-05-20 11:41:00,81.9,43.0,29.65,North,-999,-999.0,-999.0,25,0.00,,,0.00,WSDL version 420,2013-05-20 16:41:00,
2013-05-20 11:47:00,81.8,44.0,29.62,SW,214,2.9,4.9,26,0.00,,,0.00,WSDL version 420,2013-05-20 16:47:00,
2013-05-20 11:53:00,81.7,43.5,29.62,SW,225,2.0,4.9,26,0.00,,,0.00,WSDL version 420,2013-05-20 16:53:00,
2013-05-20 11:59:00,81.7,44.5,29.62,South,169,3.9,5.6,27,0.00,,,0.00,WSDL version 420,2013-05-20 16:59:00,
2013-05-20 12:05:00,83.2,45.3,29.62,South,191,3.7,7.6,26,0.00,,,0.00,WSDL version 420,2013-05-20 17:05:00,
2013-05-20 12:11:00,83.3,42.3,29.62,South,180,5.4,6.3,24,0.00,,,0.00,WSDL version 420,2013-05-20 17:11:00,
2013-05-20 12:17:00,83.2,43.1,29.62,North,-999,-999.0,-999.0,25,0.00,,,0.00,WSDL version 420,2013-05-20 17:17:00,
2013-05-20 12:23:00,84.7,43.3,29.62,South,180,4.5,5.4,22,0.00,,,0.00,WSDL version 420,2013-05-20 17:23:00,
2013-05-20 12:29:00,84.5,41.3,29.62,North,0,0.0,5.4,22,0.00,,,0.00,WSDL version 420,2013-05-20 17:29:00,
2013-05-20 12:35:00,85.3,42.4,29.62,North,-999,-999.0,-999.0,23,0.00,,,0.00,WSDL version 420,2013-05-20 17:35:00,
2013-05-20 12:41:00,86.4,41.9,29.62,North,-999,-999.0,-999.0,21,0.00,,,0.00,WSDL version 420,2013-05-20 17:41:00,
2013-05-20 12:47:00,87.0,41.9,29.62,SSE,158,4.7,10.1,21,0.00,,,0.00,WSDL version 420,2013-05-20 17:47:00,
2013-05-20 12:53:00,87.0,41.7,29.62,North,-999,-999.0,-999.0,20,0.00,,,0.00,WSDL version 420,2013-05-20 17:53:00,
2013-05-20 12:59:00,86.6,40.8,29.62,South,180,8.5,8.5,20,0.00,,,0.00,WSDL version 420,2013-05-20 17:59:00,
2013-05-20 13:05:00,86.6,40.6,29.62,SSW,203,8.1,8.1,20,0.00,,,0.00,WSDL version 420,2013-05-20 18:05:00,
2013-05-20 13:11:00,87.2,41.3,29.62,SSE,158,4.3,8.7,20,0.00,,,0.00,WSDL version 420,2013-05-20 18:11:00,
2013-05-20 13:17:00,87.8,41.5,29.62,SE,146,7.6,12.3,19,0.00,,,0.00,WSDL version 420,2013-05-20 18:17:00,
2013-05-20 13:23:00,88.0,40.6,29.62,South,180,6.0,12.3,19,0.00,,,0.00,WSDL version 420,2013-05-20 18:23:00,
2013-05-20 13:29:00,87.3,40.0,29.62,North,-999,-999.0,-999.0,19,0.00,,,0.00,WSDL version 420,2013-05-20 18:29:00,
2013-05-20 13:35:00,87.8,40.5,29.62,North,-999,-999.0,-999.0,19,0.00,,,0.00,WSDL version 420,2013-05-20 18:35:00,
2013-05-20 13:41:00,87.6,40.3,29.62,SSW,203,2.0,3.4,19,0.00,,,0.00,WSDL version 420,2013-05-20 18:41:00,
2013-05-20 13:47:00,88.0,40.6,29.62,South,180,7.2,7.8,19,0.00,,,0.00,WSDL version 420,2013-05-20 18:47:00,
2013-05-20 13:53:00,87.4,40.1,29.62,North,0,0.0,6.5,19,0.00,,,0.00,WSDL version 420,2013-05-20 18:53:00,
2013-05-20 13:59:00,87.0,39.8,29.62,SSE,158,4.3,5.8,19,0.00,,,0.00,WSDL version 420,2013-05-20 18:59:00,
2013-05-20 14:05:00,87.3,41.4,29.62,North,-999,-999.0,-999.0,20,0.00,,,0.00,WSDL version 420,2013-05-20 19:05:00,
2013-05-20 14:11:00,88.1,41.0,29.62,North,-999,-999.0,-999.0,19,0.00,,,0.00,WSDL version 420,2013-05-20 19:11:00,
2013-05-20 14:17:00,89.2,41.6,29.62,South,180,7.8,9.8,19,0.00,,,0.00,WSDL version 420,2013-05-20 19:17:00,
2013-05-20 14:23:00,89.6,40.8,29.62,SSW,203,3.1,7.8,18,0.00,,,0.00,WSDL version 420,2013-05-20 19:23:00,
2013-05-20 14:29:00,88.7,41.2,29.62,SW,225,4.3,7.6,19,0.00,,,0.00,WSDL version 420,2013-05-20 19:29:00,
2013-05-20 14:35:00,88.7,41.2,29.59,South,180,5.4,7.6,19,0.00,,,0.00,WSDL version 420,2013-05-20 19:35:00,
2013-05-20 14:41:00,89.9,41.6,29.59,South,180,4.5,10.5,18,0.00,,,0.00,WSDL version 420,2013-05-20 19:41:00,
2013-05-20 14:47:00,89.9,40.8,29.59,North,0,0.0,10.5,18,0.00,,,0.00,WSDL version 420,2013-05-20 19:47:00,
2013-05-20 14:53:00,88.7,41.2,29.59,SSW,203,5.0,6.5,19,0.00,,,0.00,WSDL version 420,2013-05-20 19:53:00,
2013-05-20 14:59:00,87.9,40.5,29.59,South,180,2.2,6.5,19,0.00,,,0.00,WSDL version 420,2013-05-20 19:59:00,
2013-05-20 15:05:00,88.6,41.1,29.59,South,180,6.7,10.7,19,0.00,,,0.00,WSDL version 420,2013-05-20 20:05:00,
2013-05-20 15:11:00,88.5,41.0,29.59,South,191,6.7,10.7,19,0.00,,,0.00,WSDL version 420,2013-05-20 20:11:00,
2013-05-20 15:17:00,88.4,40.9,29.59,South,180,5.8,5.8,19,0.00,,,0.00,WSDL version 420,2013-05-20 20:17:00,
2013-05-20 15:23:00,88.3,40.9,29.59,South,180,8.1,10.7,19,0.00,,,0.00,WSDL version 420,2013-05-20 20:23:00,
2013-05-20 15:29:00,87.5,40.2,29.59,South,169,6.6,10.1,19,0.00,,,0.00,WSDL version 420,2013-05-20 20:29:00,
2013-05-20 15:35:00,87.3,40.0,29.59,North,-999,-999.0,-999.0,19,0.00,,,0.00,WSDL version 420,2013-05-20 20:35:00,
2013-05-20 15:41:00,87.3,40.1,29.59,South,180,5.6,8.1,19,0.00,,,0.00,WSDL version 420,2013-05-20 20:41:00,
2013-05-20 15:47:00,87.1,39.9,29.59,SW,225,4.3,8.1,19,0.00,,,0.00,WSDL version 420,2013-05-20 20:47:00,
2013-05-20 15:53:00,87.1,39.9,29.59,South,180,3.8,6.5,19,0.00,,,0.00,WSDL version 420,2013-05-20 20:53:00,
2013-05-20 15:59:00,87.1,39.9,29.59,North,-999,-999.0,-999.0,19,0.00,,,0.00,WSDL version 420,2013-05-20 20:59:00,
2013-05-20 16:05:00,87.1,39.8,29.59,North,-999,-999.0,-999.0,19,0.00,,,0.00,WSDL version 420,2013-05-20 21:05:00,
2013-05-20 16:11:00,86.9,39.7,29.59,SSE,158,5.4,10.5,19,0.00,,,0.00,WSDL version 420,2013-05-20 21:11:00,
2013-05-20 16:17:00,86.9,39.7,29.59,North,-999,-999.0,-999.0,19,0.00,,,0.00,WSDL version 420,2013-05-20 21:17:00,
2013-05-20 16:23:00,86.6,39.5,29.59,North,-999,-999.0,-999.0,19,0.00,,,0.00,WSDL version 420,2013-05-20 21:23:00,
2013-05-20 16:29:00,86.5,39.7,29.59,SSE,158,4.7,6.5,20,0.00,,,0.00,WSDL version 420,2013-05-20 21:29:00,
2013-05-20 16:35:00,86.4,40.6,29.56,South,180,6.5,8.9,20,0.00,,,0.00,WSDL version 420,2013-05-20 21:35:00,
2013-05-20 16:41:00,86.1,40.4,29.56,North,-999,-999.0,-999.0,20,0.00,,,0.00,WSDL version 420,2013-05-20 21:41:00,
2013-05-20 16:47:00,86.0,40.3,29.59,North,-999,-999.0,-999.0,20,0.00,,,0.00,WSDL version 420,2013-05-20 21:47:00,
2013-05-20 16:53:00,85.8,40.2,29.59,SSE,158,4.7,5.8,20,0.00,,,0.00,WSDL version 420,2013-05-20 21:53:00,
2013-05-20 16:59:00,85.8,40.2,29.59,North,-999,-999.0,-999.0,20,0.00,,,0.00,WSDL version 420,2013-05-20 21:59:00,
2013-05-20 17:05:00,85.8,40.2,29.56,North,0,0.0,6.5,20,0.00,,,0.00,WSDL version 420,2013-05-20 22:05:00,
2013-05-20 17:11:00,85.9,40.2,29.56,North,-999,-999.0,-999.0,20,0.00,,,0.00,WSDL version 420,2013-05-20 22:11:00,
2013-05-20 17:17:00,85.8,40.1,29.56,South,169,7.8,7.8,20,0.00,,,0.00,WSDL version 420,2013-05-20 22:17:00,
2013-05-20 17:23:00,85.4,39.8,29.56,SSE,167,4.5,10.5,20,0.00,,,0.00,WSDL version 420,2013-05-20 22:23:00,
2013-05-20 17:29:00,85.1,39.6,29.56,SSE,158,6.3,10.5,20,0.00,,,0.00,WSDL version 420,2013-05-20 22:29:00,
2013-05-20 17:35:00,85.1,39.5,29.56,South,180,4.7,7.4,20,0.00,,,0.00,WSDL version 420,2013-05-20 22:35:00,
2013-05-20 17:41:00,85.1,40.8,29.56,SSE,158,3.8,5.4,21,0.00,,,0.00,WSDL version 420,2013-05-20 22:41:00,
2013-05-20 17:47:00,84.9,40.7,29.56,North,0,0.0,7.2,21,0.00,,,0.00,WSDL version 420,2013-05-20 22:47:00,
2013-05-20 17:53:00,85.1,40.8,29.56,South,180,4.0,7.6,21,0.00,,,0.00,WSDL version 420,2013-05-20 22:53:00,
2013-05-20 17:59:00,85.3,41.0,29.56,South,180,4.0,7.6,21,0.00,,,0.00,WSDL version 420,2013-05-20 22:59:00,
2013-05-20 18:05:00,85.3,41.0,29.53,North,-999,-999.0,-999.0,21,0.00,,,0.00,WSDL version 420,2013-05-20 23:05:00,
2013-05-20 18:11:00,85.2,39.7,29.53,SSE,158,4.9,10.7,20,0.00,,,0.00,WSDL version 420,2013-05-20 23:11:00,
2013-05-20 18:17:00,84.9,39.4,29.53,South,180,4.3,10.7,20,0.00,,,0.00,WSDL version 420,2013-05-20 23:17:00,
2013-05-20 18:23:00,84.7,39.2,29.53,South,180,8.1,10.5,20,0.00,,,0.00,WSDL version 420,2013-05-20 23:23:00,
2013-05-20 18:29:00,84.5,39.0,29.53,SSE,158,4.9,10.5,20,0.00,,,0.00,WSDL version 420,2013-05-20 23:29:00,
2013-05-20 18:35:00,84.1,39.3,29.53,North,-999,-999.0,-999.0,21,0.00,,,0.00,WSDL version 420,2013-05-20 23:35:00,
2013-05-20 18:41:00,84.0,39.9,29.53,North,0,0.0,13.0,21,0.00,,,0.00,WSDL version 420,2013-05-20 23:41:00,
2013-05-20 18:47:00,83.8,39.8,29.53,SSE,162,7.0,9.4,21,0.00,,,0.00,WSDL version 420,2013-05-20 23:47:00,
2013-05-20 18:53:00,83.8,39.8,29.53,North,-999,-999.0,-999.0,21,0.00,,,0.00,WSDL version 420,2013-05-20 23:53:00,
2013-05-20 18:59:00,83.8,39.7,29.53,South,180,6.9,12.3,21,0.00,,,0.00,WSDL version 420,2013-05-20 23:59:00,
2013-05-20 19:05:00,83.5,39.5,29.53,South,180,6.3,10.1,21,0.00,,,0.00,WSDL version 420,2013-05-21 00:05:00,
2013-05-20 19:11:00,83.3,39.4,29.53,SSE,158,6.3,8.1,21,0.00,,,0.00,WSDL version 420,2013-05-21 00:11:00,
2013-05-20 19:17:00,83.3,39.3,29.53,SSE,158,5.1,8.1,21,0.00,,,0.00,WSDL version 420,2013-05-21 00:17:00,
2013-05-20 19:23:00,83.1,39.2,29.53,North,-999,-999.0,-999.0,21,0.00,,,0.00,WSDL version 420,2013-05-21 00:23:00,
2013-05-20 19:29:00,82.9,39.0,29.53,SSE,163,4.0,8.1,21,0.00,,,0.00,WSDL version 420,2013-05-21 00:29:00,
2013-05-20 19:35:00,82.8,38.9,29.53,SSE,158,4.7,9.6,21,0.00,,,0.00,WSDL version 420,2013-05-21 00:35:00,
2013-05-20 19:41:00,82.6,38.7,29.53,North,-999,-999.0,-999.0,21,0.00,,,0.00,WSDL version 420,2013-05-21 00:41:00,
2013-05-20 19:47:00,82.6,38.7,29.53,South,169,3.6,10.3,21,0.00,,,0.00,WSDL version 420,2013-05-21 00:47:00,
2013-05-20 19:53:00,82.4,38.6,29.53,North,-999,-999.0,-999.0,21,0.00,,,0.00,WSDL version 420,2013-05-21 00:53:00,
2013-05-20 19:59:00,82.2,39.3,29.53,South,180,4.3,5.4,22,0.00,,,0.00,WSDL version 420,2013-05-21 00:59:00,
2013-05-20 20:05:00,82.0,39.5,29.50,North,-999,-999.0,-999.0,22,0.00,,,0.00,WSDL version 420,2013-05-21 01:05:00,
2013-05-20 20:11:00,81.9,39.3,29.50,South,180,4.1,8.1,22,0.00,,,0.00,WSDL version 420,2013-05-21 01:11:00,
2013-05-20 20:17:00,81.9,39.3,29.50,South,169,5.4,8.1,22,0.00,,,0.00,WSDL version 420,2013-05-21 01:17:00,
2013-05-20 20:23:00,81.7,39.2,29.50,SSE,158,5.4,7.8,22,0.00,,,0.00,WSDL version 420,2013-05-21 01:23:00,
2013-05-20 20:29:00,81.6,39.1,29.50,North,-999,-999.0,-999.0,22,0.00,,,0.00,WSDL version 420,2013-05-21 01:29:00,
2013-05-20 20:35:00,81.5,39.0,29.53,North,-999,-999.0,-999.0,22,0.00,,,0.00,WSDL version 420,2013-05-21 01:35:00,
2013-05-20 20:41:00,81.5,39.0,29.53,SSE,158,4.5,6.3,22,0.00,,,0.00,WSDL version 420,2013-05-21 01:41:00,
2013-05-20 20:47:00,81.3,38.9,29.53,North,0,0.0,6.0,22,0.00,,,0.00,WSDL version 420,2013-05-21 01:47:00,
2013-05-20 20:53:00,81.3,38.9,29.53,SSE,158,4.3,5.4,22,0.00,,,0.00,WSDL version 420,2013-05-21 01:53:00,
2013-05-20 20:59:00,81.1,38.7,29.53,South,180,3.1,4.9,22,0.00,,,0.00,WSDL version 420,2013-05-21 01:59:00,
2013-05-20 21:05:00,81.0,38.6,29.53,SSE,158,3.4,5.6,22,0.00,,,0.00,WSDL version 420,2013-05-21 02:05:00,
2013-05-20 21:11:00,80.9,38.5,29.53,South,180,4.5,6.0,22,0.00,,,0.00,WSDL version 420,2013-05-21 02:11:00,
2013-05-20 21:17:00,80.8,38.4,29.53,SSE,158,3.4,6.0,22,0.00,,,0.00,WSDL version 420,2013-05-21 02:17:00,
2013-05-20 21:23:00,80.8,39.2,29.53,SSE,158,5.6,5.6,23,0.00,,,0.00,WSDL version 420,2013-05-21 02:23:00,
2013-05-20 21:29:00,80.8,39.6,29.53,South,169,4.5,5.6,23,0.00,,,0.00,WSDL version 420,2013-05-21 02:29:00,
2013-05-20 21:35:00,80.6,39.5,29.53,SSE,158,5.4,8.5,23,0.00,,,0.00,WSDL version 420,2013-05-21 02:35:00,
2013-05-20 21:41:00,80.6,39.4,29.53,North,-999,-999.0,-999.0,23,0.00,,,0.00,WSDL version 420,2013-05-21 02:41:00,
2013-05-20 21:47:00,80.6,39.4,29.53,SSE,158,5.8,8.7,23,0.00,,,0.00,WSDL version 420,2013-05-21 02:47:00,
2013-05-20 21:53:00,80.5,39.3,29.53,SSE,165,4.8,6.0,23,0.00,,,0.00,WSDL version 420,2013-05-21 02:53:00,
2013-05-20 21:59:00,80.5,39.3,29.53,North,-999,-999.0,-999.0,23,0.00,,,0.00,WSDL version 420,2013-05-21 02:59:00,
2013-05-20 22:05:00,80.4,39.3,29.56,North,-999,-999.0,-999.0,23,0.00,,,0.00,WSDL version 420,2013-05-21 03:05:00,
2013-05-20 22:11:00,80.4,39.3,29.56,SSE,165,4.8,5.4,23,0.00,,,0.00,WSDL version 420,2013-05-21 03:11:00,
2013-05-20 22:17:00,80.4,39.3,29.56,North,-999,-999.0,-999.0,23,0.00,,,0.00,WSDL version 420,2013-05-21 03:17:00,
2013-05-20 22:23:00,80.4,39.4,29.56,SSE,158,4.7,5.6,24,0.00,,,0.00,WSDL version 420,2013-05-21 03:23:00,
2013-05-20 22:29:00,80.2,40.2,29.56,SSE,158,4.9,6.3,24,0.00,,,0.00,WSDL version 420,2013-05-21 03:29:00,
2013-05-20 22:35:00,80.2,40.2,29.56,SSE,158,4.9,6.3,24,0.00,,,0.00,WSDL version 420,2013-05-21 03:35:00,
2013-05-20 22:41:00,80.2,40.2,29.56,South,169,4.9,6.5,24,0.00,,,0.00,WSDL version 420,2013-05-21 03:41:00,
2013-05-20 22:47:00,80.2,40.2,29.56,North,0,0.0,6.5,24,0.00,,,0.00,WSDL version 420,2013-05-21 03:47:00,
2013-05-20 22:53:00,80.1,40.1,29.56,SSE,158,4.6,6.5,24,0.00,,,0.00,WSDL version 420,2013-05-21 03:53:00,
2013-05-20 22:59:00,80.1,40.1,29.56,SSE,158,4.6,8.1,24,0.00,,,0.00,WSDL version 420,2013-05-21 03:59:00,
2013-05-20 23:02:00,80.0,40.0,29.56,North,0,0.0,8.1,24,0.00,,,0.00,WSDL version 420,2013-05-21 04:02:00,
2013-05-20 23:05:00,79.9,39.9,29.56,South,180,4.3,8.1,24,0.00,,,0.00,WSDL version 420,2013-05-21 04:05:00,
2013-05-20 23:08:00,79.9,39.9,29.56,SSE,158,3.4,8.1,24,0.00,,,0.00,WSDL version 420,2013-05-21 04:08:00,
2013-05-20 23:14:00,79.9,39.9,29.56,SSE,158,4.9,6.0,24,0.00,,,0.00,WSDL version 420,2013-05-21 04:14:00,
2013-05-20 23:20:00,79.7,40.5,29.56,SSE,158,4.5,7.2,25,0.00,,,0.00,WSDL version 420,2013-05-21 04:20:00,
2013-05-20 23:26:00,79.7,40.8,29.56,South,169,3.4,7.2,25,0.00,,,0.00,WSDL version 420,2013-05-21 04:26:00,
2013-05-20 23:32:00,79.7,40.8,29.56,SSE,158,3.6,6.5,25,0.00,,,0.00,WSDL version 420,2013-05-21 04:32:00,
2013-05-20 23:38:00,79.7,40.8,29.56,South,191,6.9,10.1,25,0.00,,,0.00,WSDL version 420,2013-05-21 04:38:00,
2013-05-20 23:44:00,79.7,40.8,29.56,South,169,6.2,10.1,25,0.00,,,0.00,WSDL version 420,2013-05-21 04:44:00,
2013-05-20 23:50:00,79.5,40.7,29.56,North,-999,-999.0,-999.0,25,0.00,,,0.00,WSDL version 420,2013-05-21 04:50:00,
2013-05-20 23:56:00,79.5,40.7,29.56,SSE,158,4.5,7.6,25,0.00,,,0.00,WSDL version 420,2013-05-21 04:56:00,